Regional Weather Roundup
Issued by NWS

Home | Current Version | Previous Version | Text Only | Print | Product List | Glossary On
Versions: 1 2 3 4 5 6 7 8 9 10 11 12 13 14 15 16 17 18 19 20 21 22 23 24 25 26 27 28 29 30 31 32 33 34 35 36 37 38 39 40 41 42 43 44 45 46 47 48 49 50
604
ASUS43 KTOP 061359
RWRKS

WEATHER ROUNDUP FOR KANSAS
NATIONAL WEATHER SERVICE GOODLAND KS
900 AM CDT FRI MAY 06 2016

NOTE:  "FAIR" INDICATES FEW OR NO CLOUDS BELOW 12,000 FEET WITH NO
SIGNIFICANT WEATHER AND/OR OBSTRUCTIONS TO VISIBILITY.

KSZ001>006-013>018-027>032-041>047-061500-
NORTHWEST KANSAS

CITY           SKY/WX    TMP DP  RH WIND       PRES   REMARKS
GOODLAND       CLOUDY    58  47  66 S18       29.99S
HAYS           SUNNY     64  45  48 S13       30.05S
HILL CITY      CLOUDY    65  47  52 S14       30.04R
RUSSELL        SUNNY     65  47  52 S15       30.04R
$$

KSZ061>065-074>080-084>089-061500-
SOUTHWEST KANSAS

CITY           SKY/WX    TMP DP  RH WIND       PRES   REMARKS
DODGE CITY     SUNNY     62  46  55 S15G25    30.07S
ELKHART          N/A     56  45  67 S8          N/A
GARDEN CITY    MOSUNNY   63  47  55 S17G29    30.04S
GREAT BEND     MOSUNNY   64  46  52 S13       30.06S
LIBERAL        SUNNY     61  48  63 SE14G20   30.07S
$$

KSZ066>073-081>083-090>101-061500-
SOUTHEAST KANSAS

CITY           SKY/WX    TMP DP  RH WIND       PRES   REMARKS
CHANUTE        SUNNY     62  48  60 S8        30.11R
COFFEYVILLE    SUNNY     61  50  67 S7        30.13R
HUTCHINSON     SUNNY     62  51  67 S5        30.08S
MEDICINE LODGE   N/A     63  49  60 VRB5      30.08R
NEWTON         SUNNY     64  46  52 S9        30.12R
PARSONS        SUNNY     62  49  62 S5        30.13R
WICHITA INTL   SUNNY     60  51  72 S6        30.09R
WICHITA JABRA  SUNNY     66  51  58 S8        30.09R
WINFIELD       SUNNY     63  51  65 S7        30.31R
$$

KSZ007>012-019>026-033>040-048>060-102>105-061500-
NORTHEAST KANSAS

CITY           SKY/WX    TMP DP  RH WIND       PRES   REMARKS
CONCORDIA      MOSUNNY   69  46  43 S14       30.05R
EMPORIA        SUNNY     63  49  60 S9        30.10R
LAWRENCE       SUNNY     62  51  67 S5        30.09R
MANHATTAN      SUNNY     62  48  60 SW3       30.08R
OLATHE IND     SUNNY     63  44  50 S12       30.10R
OLATHE EXE     SUNNY     61  43  51 SW8       30.09S
SALINA         CLOUDY    65  52  62 S8        30.07R
TOPEKA BILLARD SUNNY     63  49  60 S5        30.08S
TOPEKA FORBES  SUNNY     65  52  62 S10       30.08R
$$




USA.gov is the U.S. government's official web portal to all federal, state and local government web resources and services.